CW9009 Weather Reports


Display with metric or nautical units.
time (UTC)temp
F
wind
direction
speed
MPH
gust
MPH
rain 1hr
in
rain 24hr
in
rain mn
in
humidity
%
barometer
mb
20260505173438 66 277 1.0 2.0 0.00 0.00 0.00 40 1009.8
20260505172418 66 115 2.0 3.0 0.00 0.00 0.00 41 1009.8
20260505171439 65 224 1.0 1.0 0.00 0.00 0.00 40 1009.8
20260505170419 65 250 1.0 2.0 0.00 0.00 0.00 44 1009.7
20260505165419 64 241 2.0 3.0 0.00 0.00 0.00 41 1009.7
20260505164439 64 233 1.0 2.0 0.00 0.00 0.00 44 1009.8
20260505163419 63 0 0.0 0.0 0.00 0.00 0.00 44 1009.8
20260505162419 63 301 1.0 3.0 0.00 0.00 0.00 44 1009.8
20260505161419 62 284 2.0 4.0 0.00 0.00 0.00 46 1009.7
20260505160420 62 216 1.0 2.0 0.00 0.00 0.00 46 1009.6
20260505152420 58 307 0.0 1.0 0.00 0.00 0.00 62 1009.6
20260505151442 57 344 1.0 2.0 0.00 0.00 0.00 64 1009.6
20260505150440 56 64 1.0 2.0 0.00 0.00 0.00 66 1009.6
20260505140442 52 92 1.0 2.0 0.00 0.00 0.00 69 1009.2
20260505124423 52 121 2.0 4.0 0.00 0.00 0.00 65 1007.5
20260505123423 52 57 3.0 3.0 0.00 0.00 0.00 65 1007.5
20260505122423 52 84 1.0 1.0 0.00 0.00 0.00 65 1007.2
20260505121423 52 49 2.0 3.0 0.00 0.00 0.00 64 1007.1
20260505120424 53 135 1.0 2.0 0.00 0.00 0.00 64 1007.0
20260505115424 53 96 2.0 3.0 0.00 0.00 0.00 62 1006.9
20260505114424 53 72 1.0 1.0 0.00 0.00 0.00 62 1006.6
20260505113424 54 68 1.0 2.0 0.00 0.00 0.00 62 1006.5
20260505112425 54 109 1.0 2.0 0.00 0.00 0.00 60 1006.5
20260505111445 54 55 1.0 2.0 0.00 0.00 0.00 60 1006.2
20260505110445 55 27 1.0 2.0 0.00 0.00 0.00 59 1006.2
20260505101425 58 0 0.0 0.0 0.00 0.00 0.00 52 1005.5
20260505100506 58 157 0.0 0.0 0.00 0.00 0.00 50 1005.2
20260505095426 58 118 1.0 1.0 0.00 0.00 0.00 50 1005.1
20260505094426 59 195 1.0 1.0 0.00 0.00 0.00 49 1004.8
20260505093426 59 66 1.0 1.0 0.00 0.00 0.00 49 1004.8
20260505092447 60 181 0.0 0.0 0.00 0.00 0.00 47 1004.8
20260505091426 60 178 1.0 1.0 0.00 0.00 0.00 47 1004.7
20260505090427 60 0.0 0.0 0.00 0.00 0.00 46 1004.5
20260505085427 60 237 1.0 1.0 0.00 0.00 0.00 46 1004.2
20260505084428 61 187 1.0 1.0 0.00 0.00 0.00 44 1004.3
20260505083427 61 270 1.0 1.0 0.00 0.00 0.00 44 1004.2
20260505082428 61 300 1.0 2.0 0.00 0.00 0.00 46 1004.1
20260505081428 61 279 1.0 2.0 0.00 0.00 0.00 46 1004.1
20260505080428 62 259 1.0 1.0 0.00 0.00 0.00 44 1004.0
20260505075428 62 283 1.0 1.0 0.00 0.00 0.00 44 1003.9
20260505074428 62 202 1.0 1.0 0.00 0.00 0.00 44 1003.9
20260505073429 62 278 1.0 2.0 0.00 0.00 0.00 44 1003.9
20260505072448 63 68 1.0 1.0 0.00 0.00 0.00 43 1003.9
20260505071449 63 0 0.0 0.0 0.00 0.00 0.00 43 1003.8
20260505070449 63 291 1.0 2.0 0.00 0.00 0.00 41 1003.8
20260505065429 64 0 0.0 0.0 0.00 0.00 0.00 41 1003.8
20260505064450 64 334 1.0 1.0 0.00 0.00 0.00 41 1003.8
20260505063429 64 0 0.0 0.0 0.00 0.00 0.00 41 1003.6
20260505062430 64 0 0.0 0.0 0.00 0.00 0.00 43 1003.5
20260505061430 65 287 0.0 1.0 0.00 0.00 0.00 40 1003.5
20260505060429 65 285 1.0 2.0 0.00 0.00 0.00 40 1003.5
20260505055430 65 187 0.0 0.0 0.00 0.00 0.00 43 1003.4
20260505054430 66 320 0.0 1.0 0.00 0.00 0.00 44 1003.4
20260505053430 66 303 1.0 1.0 0.00 0.00 0.00 38 1003.3
20260505052430 67 300 1.0 1.0 0.00 0.00 0.00 38 1003.3
20260505051431 67 60 0.0 1.0 0.00 0.00 0.00 38 1003.3
20260505050511 68 259 1.0 2.0 0.00 0.00 0.00 37 1003.2
20260505041432 71 291 1.0 1.0 0.00 0.00 0.00 34 1003.1
20260505040432 72 298 1.0 1.0 0.00 0.00 0.00 31 1003.0
20260505035433 73 300 0.0 1.0 0.00 0.00 0.00 29 1002.9
20260505034417 74 301 1.0 2.0 0.00 0.00 0.00 28 1002.7
20260505033417 74 0 0.0 0.0 0.00 0.00 0.00 28 1002.6
20260505032418 75 283 0.0 1.0 0.00 0.00 0.00 26 1002.6
20260505031418 76 296 1.0 1.0 0.00 0.00 0.00 24 1002.3
20260505030418 76 294 0.0 1.0 0.00 0.00 0.00 24 1002.2
20260505025418 77 282 2.0 2.0 0.00 0.00 0.00 24 1002.1
20260505024418 78 284 2.0 2.0 0.00 0.00 0.00 23 1002.1
20260505023418 79 294 2.0 2.0 0.00 0.00 0.00 22 1002.0
20260505022418 80 310 1.0 2.0 0.00 0.00 0.00 20 1002.0
20260505021419 80 277 1.0 2.0 0.00 0.00 0.00 20 1002.0
20260505020419 81 298 2.0 3.0 0.00 0.00 0.00 18 1001.9
20260505015419 82 295 2.0 2.0 0.00 0.00 0.00 17 1001.9
20260505014420 82 291 1.0 2.0 0.00 0.00 0.00 17 1002.0
20260505013440 82 284 1.0 2.0 0.00 0.00 0.00 17 1002.0
20260505012420 83 295 2.0 3.0 0.00 0.00 0.00 16 1002.0
20260505011420 84 277 2.0 2.0 0.00 0.00 0.00 14 1002.0
20260505010420 84 276 3.0 4.0 0.00 0.00 0.00 14 1002.0
20260505005421 84 291 2.0 3.0 0.00 0.00 0.00 12 1002.2
20260505004421 84 299 3.0 5.0 0.00 0.00 0.00 11 1002.3
20260505003421 84 296 1.0 2.0 0.00 0.00 0.00 10 1002.5
20260505002421 84 282 2.0 3.0 0.00 0.00 0.00 11 1002.5
20260505001421 84 285 2.0 2.0 0.00 0.00 0.00 11 1002.6
20260505000441 84 261 1.0 1.0 0.00 0.00 0.00 12 1002.7
20260504235441 84 266 2.0 2.0 0.00 0.00 0.00 12 1002.8
20260504234421 83 285 2.0 3.0 0.00 0.00 0.00 14 1002.8
20260504233422 83 271 1.0 1.0 0.00 0.00 0.00 16 1002.9
20260504232422 83 317 3.0 4.0 0.00 0.00 0.00 16 1003.0
20260504231442 84 294 2.0 3.0 0.00 0.00 0.00 17 1003.0
20260504230423 84 279 2.0 3.0 0.00 0.00 0.00 17 1003.3
20260504225422 83 316 1.0 2.0 0.00 0.00 0.00 18 1003.4
20260504224503 83 295 1.0 2.0 0.00 0.00 0.00 20 1003.4
20260504223423 83 2 1.0 2.0 0.00 0.00 0.00 18 1003.6
20260504222423 83 0 0.0 0.0 0.00 0.00 0.00 18 1003.8
20260504221456 83 274 0.0 1.0 0.00 0.00 0.00 22 1003.9
20260504220423 82 269 1.0 2.0 0.00 0.00 0.00 22 1004.2
20260504215443 82 286 0.0 1.0 0.00 0.00 0.00 23 1004.2
20260504214423 82 259 1.0 1.0 0.00 0.00 0.00 23 1004.4
20260504213424 81 278 2.0 2.0 0.00 0.00 0.00 24 1004.6
20260504212424 81 269 1.0 1.0 0.00 0.00 0.00 26 1004.7
20260504211417 80 339 0.0 1.0 0.00 0.00 0.00 28 1004.7
20260504210438 80 239 1.0 1.0 0.00 0.00 0.00 28 1005.1
20260504205418 79 264 2.0 3.0 0.00 0.00 0.00 28 1005.3
20260504204418 79 267 1.0 1.0 0.00 0.00 0.00 26 1005.3
20260504203418 78 277 1.0 1.0 0.00 0.00 0.00 29 1005.5
20260504202418 78 288 1.0 1.0 0.00 0.00 0.00 28 1005.5
20260504201418 77 268 1.0 1.0 0.00 0.00 0.00 28 1005.6
20260504200419 77 251 1.0 2.0 0.00 0.00 0.00 29 1005.7
20260504195419 76 282 1.0 2.0 0.00 0.00 0.00 30 1005.9
20260504194419 76 286 2.0 2.0 0.00 0.00 0.00 30 1005.9
20260504193420 76 233 3.0 4.0 0.00 0.00 0.00 30 1006.1
20260504192419 75 240 1.0 1.0 0.00 0.00 0.00 30 1006.2
20260504191419 75 211 1.0 2.0 0.00 0.00 0.00 32 1006.5
20260504190420 74 243 2.0 2.0 0.00 0.00 0.00 35 1006.6
20260504185420 73 266 1.0 2.0 0.00 0.00 0.00 35 1006.7
20260504184420 73 282 1.0 1.0 0.00 0.00 0.00 36 1006.9
20260504183420 72 226 0.0 1.0 0.00 0.00 0.00 36 1007.1
20260504182420 71 223 0.0 1.0 0.00 0.00 0.00 36 1007.1
20260504181420 70 249 2.0 2.0 0.00 0.00 0.00 37 1007.3
20260504180421 69 245 1.0 1.0 0.00 0.00 0.00 40 1007.3
20260504175422 68 263 1.0 2.0 0.00 0.00 0.00 43 1007.5
20260504174421 68 301 2.0 3.0 0.00 0.00 0.00 46 1007.5